Currently 63°F in Riverside (Canyon Crest), California, USA
63°F
63°F / 55°F
4 mph W
0.00"
Monday, May 4, 2026 10:44 AM PDT

Riverside (Canyon Crest), California Weather Summary
Last 36 Hours

Temperature Winds Hourly Humidity Dewpoint
Time Report Norm Report Norm Max Gusts Precip. Rpt. Norm Rpt. Norm Pressure
1,2Mon 10:44 AM  63.2°F  68°F  4 mph W  3 mph  9 mph  0.00"  60%  64%  49°F  55°F  30.07"
Mon 10:00 AM  60.7°F  66°F  1 mph SW  3 mph  9 mph  0.00"  64%  68%  48°F  55°F  30.06"
Mon 09:00 AM  59.1°F  63°F  calm  2 mph  7 mph  0.00"  67%  75%  48°F  55°F  30.06"
Mon 08:00 AM  57.6°F  60°F  3 mph W  2 mph  6 mph  0.00"  75%  81%  49°F  54°F  30.05"
Mon 07:00 AM  55.2°F  57°F  1 mph W  2 mph  none  0.00"  81%  84%  49°F  52°F  30.05"
Mon 06:00 AM  54.7°F  57°F  calm  1 mph  2 mph  0.00"  81%  85%  49°F  52°F  30.04"
3Mon 05:27 AM  54.6°F  57°F  calm  1 mph  none  ----  81%  85%  49°F  52°F  30.04"
Mon 05:00 AM  54.9°F  57°F  calm  1 mph  none  0.00"  80%  84%  49°F  52°F  30.03"
Mon 04:00 AM  55.7°F  58°F  calm  2 mph  6 mph  0.00"  76%  84%  48°F  53°F  30.03"
Mon 03:00 AM  56.7°F  58°F  1 mph SW  1 mph  8 mph  0.00"  75%  83%  49°F  53°F  30.02"
Mon 02:00 AM  57.2°F  59°F  6 mph W  1 mph  8 mph  0.00"  80%  81%  51°F  53°F  30.03"
Mon 01:00 AM  57.6°F  60°F  6 mph W  2 mph  9 mph  0.00"  79%  80%  51°F  53°F  30.05"
Mon 12:00 AM  58.0°F  61°F  2 mph W  1 mph  7 mph  0.00"  77%  78%  50°F  54°F  30.03"
Sun 11:00 PM  58.1°F  62°F  2 mph SW  1 mph  8 mph  0.00"  74%  76%  50°F  54°F  30.01"
Sun 10:00 PM  58.8°F  64°F  4 mph SW  1 mph  14 mph  0.00"  71%  73%  49°F  54°F  30.02"
Sun 09:00 PM  59.6°F  65°F  5 mph W  1 mph  15 mph  0.00"  70%  69%  49°F  54°F  30.02"
Sun 08:00 PM  61.0°F  68°F  6 mph NW  2 mph  14 mph  0.00"  68%  64%  50°F  54°F  29.99"
Sun 07:00 PM  63.4°F  71°F  5 mph W  4 mph  14 mph  0.00"  60%  58%  49°F  55°F  29.96"
Sun 06:00 PM  67.6°F  74°F  5 mph W  6 mph  15 mph  0.00"  56%  53%  51°F  55°F  29.95"
Sun 05:00 PM  68.5°F  75°F  5 mph W  6 mph  17 mph  0.00"  58%  50%  52°F  55°F  29.94"
Sun 04:00 PM  68.3°F  77°F  8 mph W  6 mph  15 mph  0.00"  60%  48%  53°F  55°F  29.95"
Sun 03:00 PM  69.4°F  77°F  6 mph W  6 mph  10 mph  0.00"  61%  47%  55°F  55°F  29.96"
Sun 02:00 PM  67.5°F  76°F  7 mph W  5 mph  9 mph  0.00"  70%  48%  57°F  54°F  29.98"
Sun 01:00 PM  62.9°F  74°F  4 mph W  4 mph  10 mph  0.00"  81%  50%  57°F  54°F  30.00"
Sun 12:00 PM  60.7°F  72°F  6 mph W  4 mph  12 mph  0.00"  88%  55%  57°F  54°F  30.03"
Sun 11:00 AM  60.7°F  69°F  5 mph SW  3 mph  8 mph  0.00"  95%  60%  59°F  55°F  30.03"
Sun 10:00 AM  60.1°F  66°F  4 mph W  3 mph  5 mph  0.00"  97%  67%  59°F  55°F  30.01"
Sun 09:00 AM  58.8°F  63°F  1 mph W  2 mph  4 mph  0.00"  98%  74%  58°F  54°F  30.00"
Sun 08:00 AM  58.1°F  60°F  calm  2 mph  3 mph  0.00"  97%  80%  57°F  54°F  30.00"
Sun 07:00 AM  57.8°F  57°F  calm  2 mph  3 mph  0.00"  96%  83%  57°F  52°F  29.99"
Sun 06:00 AM  58.2°F  57°F  1 mph W  2 mph  3 mph  0.00"  94%  84%  56°F  52°F  29.97"
Sun 05:00 AM  58.0°F  57°F  1 mph SW  2 mph  6 mph  0.00"  92%  83%  56°F  52°F  29.96"
Sun 04:00 AM  57.9°F  58°F  calm  2 mph  7 mph  0.00"  93%  83%  56°F  52°F  29.96"
Sun 03:00 AM  57.6°F  58°F  1 mph SW  1 mph  4 mph  0.00"  92%  82%  55°F  52°F  29.97"
Sun 02:00 AM  58.4°F  59°F  calm  1 mph  3 mph  0.00"  84%  81%  53°F  53°F  29.97"
Sun 01:00 AM  59.4°F  60°F  calm  2 mph  2 mph  0.00"  82%  79%  54°F  53°F  29.96"
Sun 12:00 AM  60.6°F  61°F  calm  1 mph  2 mph  0.00"  79%  77%  54°F  53°F  29.96"
Sat 11:00 PM  61.9°F  62°F  calm  1 mph  6 mph  0.00"  77%  75%  54°F  54°F  29.96"

  1. Current weather data. No green row appears if the current weather data is also the high or low for the current day.
  2. High temperature for the current day.
  3. Low temperature for the current day.

The Riverside (Canyon Crest), California weather pages are a service of WeatherCurrents.
Copyright ©Mon May 04 10:44:17 PDT 2026  WeatherCurrents. All rights reserved. - Submit questions and comments - Privacy Policy

This page automatically refreshes every 10 minutes.